Location: Nickerson Gardens
(33.9320°N, 118.2484°W)
Time: 19:37:12
(UTC+00:00)

N. Korean satellite - Visible Passes

Search period start: 22 January 2021 00:00
Search period end: 01 February 2021 00:00
Orbit: 452 x 502 km, 97.2° (Epoch: 22 January)

Date Brightness Start Highest point End Pass type
(mag) Time Alt. Az. Time Alt. Az. Time Alt. Az.
22 Jan 9.5 12:27:46 10° NE 12:29:55 16° E 12:32:02 10° SE visible
22 Jan 7.7 14:00:31 10° NNW 14:03:09 20° WNW 14:05:44 10° WSW visible
23 Jan 6.6 13:33:22 10° N 13:36:43 49° WNW 13:40:00 10° SSW visible
24 Jan 10.0 01:39:08 10° WSW 01:40:56 13° W 01:42:44 10° WNW visible
24 Jan 6.9 13:06:45 10° NNE 13:10:10 61° E 13:13:32 10° S visible
25 Jan 8.8 12:40:41 10° NE 12:43:31 24° E 12:46:20 10° SSE visible
25 Jan 8.2 14:14:48 10° NW 14:16:35 14° WNW 14:18:21 10° W visible
26 Jan 10.0 12:16:22 10° E 12:16:48 10° E 12:17:12 10° E visible
26 Jan 7.2 13:47:08 10° NNW 13:50:11 30° WNW 13:53:12 10° SW visible
27 Jan 6.2 13:20:15 10° N 13:23:41 80° W 13:27:04 10° SSW visible
28 Jan 7.9 12:53:52 10° NNE 12:57:05 37° E 13:00:15 10° SSE visible
29 Jan 9.5 12:28:13 10° NE 12:30:23 16° E 12:32:32 10° SE visible
29 Jan 7.7 14:01:03 10° NNW 14:03:36 20° WNW 14:06:08 10° WSW visible
30 Jan 6.6 13:33:51 10° N 13:37:08 47° WNW 13:40:25 10° SSW visible
31 Jan 6.8 13:07:12 10° NNE 13:10:35 63° E 13:13:56 10° S visible
